Regional Weather Roundup
Issued by NWS

Home | Current Version | Previous Version | Text Only | Print | Product List | Glossary Off
Versions: 1 2 3 4 5 6 7 8 9 10 11 12 13 14 15 16 17 18 19 20 21 22 23 24 25 26 27 28 29 30 31 32 33 34 35 36 37 38 39 40 41 42 43 44 45 46 47 48 49 50

000
ASUS43 KBIS 192302
RWRND

NORTH DAKOTA REGIONAL WEATHER ROUNDUP
NATIONAL WEATHER SERVICE BISMARCK ND
600 PM CDT SAT AUG 19 2017

NOTE: "FAIR" INDICATES FEW OR NO CLOUDS BELOW 12,000 FEET WITH NO
SIGNIFICANT WEATHER AND/OR OBSTRUCTIONS TO VISIBILITY.


NDZ001>003-009>011-017-200000-
NORTHWEST NORTH DAKOTA

CITY           SKY/WX    TMP DP  RH WIND       PRES   REMARKS
WILLISTON      SUNNY     82  47  29 N25G36    29.81R
MINOT          SUNNY     89  50  26 W21       29.68R
MINOT AFB      SUNNY     87  47  24 NW21G28   29.67R
$$

NDZ018>021-031>035-040>046-200000-
SOUTHWEST NORTH DAKOTA

CITY           SKY/WX    TMP DP  RH WIND       PRES   REMARKS
BISMARCK       MOSUNNY   86  63  45 SW6       29.73F
DICKINSON      CLOUDY    81  47  30 NW17G29   29.82R
GARRISON         N/A     85  47  26 W22G36    29.72S
HETTINGER ARPT CLOUDY    83  45  26 NW14      29.85S
$$

NDZ004>008-012>016-024-026-027-054-200000-
NORTHEAST NORTH DAKOTA

CITY           SKY/WX    TMP DP  RH WIND       PRES   REMARKS
GRAND FORKS    MOSUNNY   85  61  44 S21       29.71F
GRND FRKS AFB  SUNNY     82  60  47 S15       29.72S
DEVILS LAKE    SUNNY     81  63  54 S13       29.71S
$$

NDZ022-023-025-028>030-036>039-047>053-200000-
SOUTHEAST NORTH DAKOTA

CITY           SKY/WX    TMP DP  RH WIND       PRES   REMARKS
FARGO          SUNNY     79  62  56 S14G25    29.76F
JAMESTOWN      CLOUDY    78  63  59 S10       29.74F
$$




USA.gov is the U.S. government's official web portal to all federal, state and local government web resources and services.